Date String (YYYY-MM-DD hh:mm:ss) UTC,Instrument flags,absolute air pressure of the measurement (hPa),sample flow rate (lpm),inlet stack bypass flow (lpm),air temperature of the measurement (°C),ambient temperature measured by the external sensor (°C),aerosol sample conditioner tube jacket temperature (°C),OPC LED temperature (°C),internal box temperature (°C),relative humidity of the measurement (%),span deviation,mass concentration of particles derived from Lorenz-Mie calculation of OPC scattering (μg/m³),mass concentration of particles derived from Lorenz-Mie calculation of OPC scattering (μg/m³),mass concentration of particles derived from Lorenz-Mie calculation of OPC scattering (μg/m³)
DateTimeUTC,F1_M11,P_M11,Q1_M11,Q2_M11,T1_M11,T2_M11,T3_M11,T4_M11,T5_M11,U1_M11,ZSPAN_M11,X2_M11,X0_M11,X1_M11
2024-02-23 19:00:00,SystemResetWarning,0832.3,5.00,000.00,020.3,019.8,000.0,028.6,022.1,12.7,0000.0,0001.38,0003.38,0001.08
2024-02-23 19:01:00,SystemResetWarning,0832.2,5.01,000.00,020.3,019.8,000.0,028.6,022.1,12.9,0000.0,0001.36,0003.07,0001.09
2024-02-23 19:02:00,SystemResetWarning,0832.2,5.00,000.00,020.3,019.8,000.0,028.6,022.1,12.7,0000.0,0001.35,0003.71,0001.09
2024-02-23 19:03:00,SystemResetWarning,0832.2,5.01,000.00,020.3,019.8,000.0,028.6,022.1,12.6,0000.0,0001.30,0003.51,0001.10
2024-02-23 19:04:00,SystemResetWarning,0832.2,5.01,000.00,020.3,019.8,000.0,028.6,022.1,12.7,0000.0,0001.32,0003.53,0001.12
2024-02-23 19:05:00,SystemResetWarning,0832.1,5.00,000.00,020.3,019.8,000.0,028.6,022.1,12.6,0000.0,0001.33,0003.55,0001.13
2024-02-23 19:06:00,SystemResetWarning,0832.2,5.01,000.00,020.4,019.8,000.0,028.6,022.1,12.3,0000.0,0001.34,0003.20,0001.15
2024-02-23 19:07:00,SystemResetWarning,0832.2,5.00,000.00,020.4,019.8,000.0,028.6,022.1,12.8,0000.0,0001.35,0003.18,0001.18
2024-02-23 19:08:00,SystemResetWarning,0832.2,5.00,000.00,020.4,019.8,000.0,028.6,022.1,12.8,0000.0,0001.37,0003.89,0001.20
2024-02-23 19:09:00,SystemResetWarning,0832.1,5.00,000.00,020.4,019.9,000.0,028.7,022.1,13.1,0000.0,0001.36,0004.95,0001.20
2024-02-23 19:10:00,SystemResetWarning,0832.0,5.00,000.00,020.4,019.9,000.0,028.7,022.1,12.9,0000.0,0001.36,0005.87,0001.21
2024-02-23 19:11:00,SystemResetWarning,0832.0,4.99,000.00,020.4,019.9,000.0,028.7,022.2,12.7,0000.0,0001.38,0006.25,0001.22
2024-02-23 19:12:00,SystemResetWarning,0832.0,4.99,000.00,020.4,019.9,000.0,028.7,022.1,13.0,0000.0,0001.36,0006.21,0001.22
2024-02-23 19:13:00,SystemResetWarning,0832.0,5.01,000.00,020.4,019.9,000.0,028.7,022.2,12.9,0000.0,0001.38,0005.17,0001.22
2024-02-23 19:14:00,SystemResetWarning,0832.0,5.00,000.00,020.5,019.9,000.0,028.7,022.2,13.5,0000.0,0001.38,0005.11,0001.21
2024-02-23 19:15:00,SystemResetWarning,0832.0,5.00,000.00,020.5,019.9,000.0,028.7,022.2,12.7,0000.0,0001.38,0005.10,0001.20
2024-02-23 19:16:00,SystemResetWarning,0832.0,4.99,000.00,020.5,019.9,000.0,028.7,022.2,12.9,0000.0,0001.38,0005.12,0001.20
2024-02-23 19:17:00,SystemResetWarning,0832.0,4.99,000.00,020.5,019.9,000.0,028.7,022.2,13.4,0000.0,0001.39,0005.10,0001.20
2024-02-23 19:18:00,SystemResetWarning,0832.0,5.00,000.00,020.5,019.9,000.0,028.7,022.2,12.9,0000.0,0001.43,0005.29,0001.20
2024-02-23 19:19:00,SystemResetWarning,0832.0,5.01,000.00,020.5,019.9,000.0,028.7,022.2,12.2,0000.0,0001.46,0005.14,0001.19
2024-02-23 19:20:00,SystemResetWarning,0832.0,5.01,000.00,020.5,019.9,000.0,028.7,022.2,12.3,0000.0,0001.47,0005.10,0001.19
2024-02-23 19:21:00,SystemResetWarning,0832.0,5.00,000.00,020.5,019.9,000.0,028.8,022.2,12.4,0000.0,0001.48,0004.46,0001.19
2024-02-23 19:22:00,SystemResetWarning,0831.9,5.00,000.00,020.5,020.0,000.0,028.8,022.3,11.9,0000.0,0001.48,0004.72,0001.19
2024-02-23 19:23:00,SystemResetWarning,0831.9,4.99,000.00,020.5,020.0,000.0,028.8,022.3,11.7,0000.0,0001.52,0005.64,0001.21
2024-02-23 19:24:00,SystemResetWarning,0831.8,5.00,000.00,020.5,020.0,000.0,028.8,022.3,11.8,0000.0,0001.52,0005.57,0001.22
2024-02-23 19:25:00,SystemResetWarning,0831.8,5.01,000.00,020.5,020.0,000.0,028.8,022.2,11.9,0000.0,0001.55,0005.50,0001.24
2024-02-23 19:26:00,SystemResetWarning,0831.8,4.99,000.00,020.5,020.0,000.0,028.8,022.2,12.5,0000.0,0001.58,0005.71,0001.25
2024-02-23 19:27:00,SystemResetWarning,0832.0,5.00,000.00,020.6,020.0,000.0,028.8,022.3,12.0,0000.0,0001.61,0006.59,0001.25
2024-02-23 19:28:00,SystemResetWarning,0831.9,5.00,000.00,020.6,020.0,000.0,028.8,022.3,11.8,0000.0,0001.63,0006.65,0001.25
2024-02-23 19:29:00,SystemResetWarning,0832.0,5.00,000.00,020.6,020.0,000.0,028.8,022.3,12.4,0000.0,0001.62,0006.99,0001.25
2024-02-23 19:30:00,SystemResetWarning,0831.7,5.00,000.00,020.6,020.0,000.0,028.8,022.3,12.8,0000.0,0001.62,0006.83,0001.26
2024-02-23 19:31:00,SystemResetWarning,0831.7,5.00,000.00,020.6,020.0,000.0,028.8,022.3,12.3,0000.0,0001.60,0005.41,0001.28
2024-02-23 19:32:00,SystemResetWarning,0831.7,5.00,000.00,020.6,020.1,000.0,028.9,022.3,11.9,0000.0,0001.59,0005.40,0001.28
2024-02-23 19:33:00,SystemResetWarning,0831.6,4.99,000.00,020.6,020.1,000.0,028.9,022.3,12.2,0000.0,0001.59,0005.37,0001.29
2024-02-23 19:34:00,SystemResetWarning,0831.6,5.00,000.00,020.6,020.1,000.0,028.9,022.4,11.6,0000.0,0001.56,0004.92,0001.29
2024-02-23 19:35:00,SystemResetWarning,0831.6,5.00,000.00,020.7,020.1,000.0,028.9,022.4,11.5,0000.0,0001.58,0004.88,0001.29
2024-02-23 19:36:00,SystemResetWarning,0831.6,4.99,000.00,020.7,020.1,000.0,028.9,022.4,11.6,0000.0,0001.59,0004.90,0001.30
2024-02-23 19:37:00,SystemResetWarning,0831.6,5.00,000.00,020.7,020.1,000.0,028.9,022.4,11.5,0000.0,0001.56,0004.76,0001.30
2024-02-23 19:38:00,SystemResetWarning,0831.6,5.00,000.00,020.7,020.1,000.0,028.9,022.4,11.5,0000.0,0001.54,0003.91,0001.30
2024-02-23 19:39:00,SystemResetWarning,0831.6,5.00,000.00,020.7,020.1,000.0,028.9,022.3,11.8,0000.0,0001.51,0003.82,0001.30
2024-02-23 19:40:00,SystemResetWarning,0831.6,5.01,000.00,020.7,020.1,000.0,028.9,022.4,12.1,0000.0,0001.51,0004.32,0001.30
2024-02-23 19:41:00,SystemResetWarning,0831.5,5.00,000.00,020.7,020.2,000.0,028.9,022.4,12.0,0000.0,0001.49,0004.21,0001.30
2024-02-23 19:42:00,SystemResetWarning,0831.5,5.00,000.00,020.7,020.2,000.0,028.9,022.4,11.8,0000.0,0001.50,0004.95,0001.30
2024-02-23 19:43:00,SystemResetWarning,0831.5,5.00,000.00,020.8,020.2,000.0,028.9,022.4,11.6,0000.0,0001.51,0006.11,0001.29
2024-02-23 19:44:00,SystemResetWarning,0831.5,5.01,000.00,020.8,020.2,000.0,028.9,022.5,11.1,0000.0,0001.51,0005.96,0001.30
2024-02-23 19:45:00,SystemResetWarning,0831.5,5.00,000.00,020.8,020.2,000.0,028.9,022.5,11.4,0000.0,0001.52,0005.04,0001.30
2024-02-23 19:46:00,SystemResetWarning,0831.5,4.98,000.00,020.8,020.2,000.0,029.0,022.5,11.6,0000.0,0001.52,0005.02,0001.30
2024-02-23 19:47:00,SystemResetWarning,0831.4,5.00,000.00,020.8,020.2,000.0,029.0,022.5,11.2,0000.0,0001.52,0005.02,0001.31
2024-02-23 19:48:00,SystemResetWarning,0831.4,5.00,000.00,020.8,020.3,000.0,029.0,022.5,11.3,0000.0,0001.52,0005.14,0001.31
2024-02-23 19:49:00,SystemResetWarning,0831.4,5.01,000.00,020.8,020.3,000.0,029.0,022.5,11.3,0000.0,0001.51,0006.59,0001.32
2024-02-23 19:50:00,SystemResetWarning,0831.4,5.01,000.00,020.8,020.3,000.0,029.0,022.5,11.1,0000.0,0001.49,0006.55,0001.31
2024-02-23 19:51:00,SystemResetWarning,0831.4,5.00,000.00,020.9,020.3,000.0,029.0,022.5,11.3,0000.0,0001.48,0005.74,0001.31
2024-02-23 19:52:00,SystemResetWarning,0831.4,5.00,000.00,020.9,020.3,000.0,029.0,022.5,11.1,0000.0,0001.48,0005.56,0001.31
2024-02-23 19:53:00,SystemResetWarning,0831.4,4.99,000.00,020.9,020.3,000.0,029.0,022.5,11.0,0000.0,0001.50,0005.21,0001.31
2024-02-23 19:54:00,SystemResetWarning,0831.4,4.99,000.00,020.9,020.3,000.0,029.0,022.5,10.9,0000.0,0001.53,0004.82,0001.32
2024-02-23 19:55:00,SystemResetWarning,0831.3,5.00,000.00,020.9,020.3,000.0,029.0,022.5,11.3,0000.0,0001.54,0005.18,0001.31
2024-02-23 19:56:00,SystemResetWarning,0831.3,5.01,000.00,020.9,020.3,000.0,029.1,022.6,11.1,0000.0,0001.52,0005.15,0001.30
2024-02-23 19:57:00,SystemResetWarning,0831.3,5.01,000.00,020.9,020.4,000.0,029.1,022.6,10.8,0000.0,0001.52,0005.17,0001.29
2024-02-23 19:58:00,SystemResetWarning,0831.3,5.00,000.00,020.9,020.4,000.0,029.1,022.6,10.7,0000.0,0001.51,0005.17,0001.28
2024-02-23 19:59:00,SystemResetWarning,0831.3,4.99,000.00,020.9,020.4,000.0,029.1,022.6,10.9,0000.0,0001.52,0005.65,0001.27
